| time (UTC) | temp C | wind direction | speed KPH | gust KPH | rain 1hr cm | rain 24hr cm | rain mn cm | humidity % | barometer mb |
| 20260502181623 | 22 | 209 | 3.2 | 3.2 | 0.00 | 0.00 | 0.00 | 25 | 1014.6 |
| 20260502181124 | 22 | 206 | 3.2 | 4.8 | 0.00 | 0.00 | 0.00 | 25 | 1014.9 |
| 20260502180623 | 22 | 216 | 1.6 | 1.6 | 0.00 | 0.00 | 0.00 | 25 | 1014.9 |
| 20260502180123 | 22 | 199 | 0.0 | 0.0 | 0.00 | 0.00 | 0.00 | 24 | 1014.6 |
| 20260502170123 | 24 | 206 | 6.4 | 11.3 | 0.00 | 0.00 | 0.00 | 21 | 1015.2 |
| 20260502164123 | 25 | 201 | 4.8 | 11.3 | 0.00 | 0.00 | 0.00 | 20 | 1015.2 |
| 20260502163623 | 25 | 167 | 1.6 | 1.6 | 0.00 | 0.00 | 0.00 | 20 | 1015.6 |
| 20260502163123 | 25 | 234 | 3.2 | 4.8 | 0.00 | 0.00 | 0.00 | 21 | 1015.2 |
| 20260502162623 | 25 | 191 | 6.4 | 8.0 | 0.00 | 0.00 | 0.00 | 21 | 1015.6 |
| 20260502162123 | 25 | 205 | 8.0 | 11.3 | 0.00 | 0.00 | 0.00 | 21 | 1015.9 |
| 20260502161624 | 25 | 216 | 8.0 | 11.3 | 0.00 | 0.00 | 0.00 | 21 | 1015.6 |
| 20260502161123 | 25 | 186 | 11.3 | 14.5 | 0.00 | 0.00 | 0.00 | 21 | 1015.6 |
| 20260502160623 | 25 | 195 | 4.8 | 8.0 | 0.00 | 0.00 | 0.00 | 21 | 1015.9 |
| 20260502160123 | 25 | 168 | 8.0 | 11.3 | 0.00 | 0.00 | 0.00 | 20 | 1015.9 |
| 20260502152124 | 25 | 179 | 6.4 | 11.3 | 0.00 | 0.00 | 0.00 | 21 | 1016.6 |
| 20260502151623 | 25 | 203 | 4.8 | 8.0 | 0.00 | 0.00 | 0.00 | 20 | 1016.6 |
| 20260502151124 | 25 | 232 | 11.3 | 14.5 | 0.00 | 0.00 | 0.00 | 20 | 1016.6 |
| 20260502150623 | 25 | 194 | 6.4 | 9.7 | 0.00 | 0.00 | 0.00 | 20 | 1016.6 |
| 20260502150123 | 25 | 241 | 6.4 | 8.0 | 0.00 | 0.00 | 0.00 | 20 | 1016.9 |
| 20260502140124 | 25 | 223 | 8.0 | 9.7 | 0.00 | 0.00 | 0.00 | 21 | 1017.6 |
| 20260502130623 | 25 | 271 | 8.0 | 9.7 | 0.00 | 0.00 | 0.00 | 24 | 1018.3 |
| 20260502130123 | 25 | 168 | 4.8 | 8.0 | 0.00 | 0.00 | 0.00 | 25 | 1018.6 |
| 20260502123623 | 25 | 137 | 4.8 | 8.0 | 0.00 | 0.00 | 0.00 | 24 | 1019.0 |
| 20260502123123 | 25 | 235 | 14.5 | 20.9 | 0.00 | 0.00 | 0.00 | 23 | 1019.0 |
| 20260502122624 | 24 | 216 | 6.4 | 9.7 | 0.00 | 0.00 | 0.00 | 23 | 1019.0 |
| 20260502122124 | 24 | 221 | 8.0 | 11.3 | 0.00 | 0.00 | 0.00 | 23 | 1019.0 |
| 20260502121623 | 25 | 270 | 11.3 | 17.7 | 0.00 | 0.00 | 0.00 | 23 | 1019.0 |
| 20260502121124 | 24 | 255 | 8.0 | 12.9 | 0.00 | 0.00 | 0.00 | 23 | 1019.0 |
| 20260502120623 | 24 | 259 | 14.5 | 16.1 | 0.00 | 0.00 | 0.00 | 24 | 1019.3 |
| 20260502120123 | 24 | 228 | 1.6 | 3.2 | 0.00 | 0.00 | 0.00 | 24 | 1019.3 |
| 20260502115624 | 24 | 230 | 12.9 | 16.1 | 0.00 | 0.00 | 0.00 | 25 | 1019.6 |
| 20260502115123 | 24 | 241 | 11.3 | 14.5 | 0.00 | 0.00 | 0.00 | 24 | 1019.3 |
| 20260502114625 | 23 | 239 | 4.8 | 11.3 | 0.00 | 0.00 | 0.00 | 24 | 1019.6 |
| 20260502114123 | 23 | 222 | 4.8 | 4.8 | 0.00 | 0.00 | 0.00 | 24 | 1019.6 |
| 20260502113623 | 23 | 276 | 16.1 | 22.5 | 0.00 | 0.00 | 0.00 | 24 | 1019.6 |
| 20260502113123 | 23 | 313 | 4.8 | 8.0 | 0.00 | 0.00 | 0.00 | 25 | 1019.6 |
| 20260502112623 | 23 | 193 | 12.9 | 16.1 | 0.00 | 0.00 | 0.00 | 25 | 1019.6 |
| 20260502112123 | 23 | 222 | 8.0 | 11.3 | 0.00 | 0.00 | 0.00 | 26 | 1019.6 |
| 20260502111623 | 23 | 213 | 6.4 | 9.7 | 0.00 | 0.00 | 0.00 | 25 | 1020.0 |
| 20260502111123 | 23 | 181 | 6.4 | 11.3 | 0.00 | 0.00 | 0.00 | 25 | 1020.0 |
| 20260502110623 | 23 | 250 | 14.5 | 17.7 | 0.00 | 0.00 | 0.00 | 26 | 1020.0 |
| 20260502110123 | 23 | 215 | 6.4 | 8.0 | 0.00 | 0.00 | 0.00 | 26 | 1020.0 |
| 20260502105623 | 23 | 309 | 8.0 | 11.3 | 0.00 | 0.00 | 0.00 | 26 | 1020.0 |
| 20260502105123 | 23 | 189 | 4.8 | 8.0 | 0.00 | 0.00 | 0.00 | 26 | 1020.0 |
| 20260502104624 | 23 | 134 | 1.6 | 3.2 | 0.00 | 0.00 | 0.00 | 27 | 1020.3 |
| 20260502104123 | 23 | 207 | 11.3 | 14.5 | 0.00 | 0.00 | 0.00 | 27 | 1020.0 |
| 20260502103623 | 23 | 255 | 11.3 | 14.5 | 0.00 | 0.00 | 0.00 | 28 | 1020.3 |
| 20260502103123 | 23 | 205 | 4.8 | 8.0 | 0.00 | 0.00 | 0.00 | 28 | 1020.7 |
| 20260502102624 | 22 | 267 | 14.5 | 16.1 | 0.00 | 0.00 | 0.00 | 28 | 1020.3 |
| 20260502102123 | 22 | 246 | 6.4 | 14.5 | 0.00 | 0.00 | 0.00 | 28 | 1020.7 |
| 20260502101623 | 22 | 238 | 11.3 | 12.9 | 0.00 | 0.00 | 0.00 | 28 | 1020.7 |
| 20260502101123 | 23 | 213 | 9.7 | 12.9 | 0.00 | 0.00 | 0.00 | 28 | 1020.7 |
| 20260502100623 | 22 | 219 | 8.0 | 12.9 | 0.00 | 0.00 | 0.00 | 28 | 1020.7 |
| 20260502100123 | 23 | 271 | 8.0 | 12.9 | 0.00 | 0.00 | 0.00 | 29 | 1020.7 |
| 20260502091123 | 23 | 188 | 8.0 | 9.7 | 0.00 | 0.00 | 0.00 | 29 | 1021.3 |
| 20260502090624 | 22 | 167 | 11.3 | 14.5 | 0.00 | 0.00 | 0.00 | 29 | 1021.3 |
| 20260502090123 | 22 | 126 | 11.3 | 14.5 | 0.00 | 0.00 | 0.00 | 30 | 1021.0 |
| 20260502071123 | 17 | 168 | 9.7 | 11.3 | 0.00 | 0.00 | 0.00 | 41 | 1022.0 |
| 20260502070623 | 16 | 175 | 11.3 | 12.9 | 0.00 | 0.00 | 0.00 | 43 | 1022.4 |
| 20260502070124 | 17 | 161 | 3.2 | 4.8 | 0.00 | 0.00 | 0.00 | 42 | 1022.4 |
| 20260502065623 | 16 | 192 | 0.0 | 0.0 | 0.00 | 0.00 | 0.00 | 43 | 1022.4 |
| 20260502065124 | 16 | 193 | 4.8 | 4.8 | 0.00 | 0.00 | 0.00 | 44 | 1022.4 |
| 20260502064623 | 15 | 135 | 4.8 | 4.8 | 0.00 | 0.00 | 0.00 | 44 | 1022.4 |
| 20260502064123 | 15 | 171 | 4.8 | 8.0 | 0.00 | 0.00 | 0.00 | 45 | 1022.4 |
| 20260502063623 | 15 | 160 | 1.6 | 3.2 | 0.00 | 0.00 | 0.00 | 46 | 1022.4 |
| 20260502063123 | 15 | 123 | 4.8 | 8.0 | 0.00 | 0.00 | 0.00 | 47 | 1022.4 |
| 20260502062623 | 14 | 159 | 8.0 | 9.7 | 0.00 | 0.00 | 0.00 | 47 | 1022.4 |
| 20260502062123 | 14 | 147 | 3.2 | 3.2 | 0.00 | 0.00 | 0.00 | 46 | 1022.4 |
| 20260502061624 | 14 | 164 | 4.8 | 4.8 | 0.00 | 0.00 | 0.00 | 44 | 1022.4 |
| 20260502061123 | 13 | 197 | 1.6 | 3.2 | 0.00 | 0.00 | 0.00 | 46 | 1022.4 |
| 20260502060623 | 13 | 168 | 4.8 | 4.8 | 0.00 | 0.00 | 0.00 | 47 | 1022.4 |
| 20260502060123 | 13 | 155 | 3.2 | 4.8 | 0.00 | 0.00 | 0.00 | 46 | 1022.7 |
| 20260502055623 | 13 | 154 | 4.8 | 4.8 | 0.00 | 0.00 | 0.00 | 46 | 1022.4 |
| 20260502055123 | 12 | 192 | 0.0 | 0.0 | 0.00 | 0.00 | 0.00 | 48 | 1022.4 |
| 20260502054623 | 12 | 181 | 3.2 | 3.2 | 0.00 | 0.00 | 0.00 | 49 | 1022.7 |
| 20260502054123 | 12 | 164 | 1.6 | 3.2 | 0.00 | 0.00 | 0.00 | 51 | 1022.7 |
| 20260502053623 | 11 | 193 | 3.2 | 4.8 | 0.00 | 0.00 | 0.00 | 52 | 1023.0 |
| 20260502053123 | 11 | 196 | 1.6 | 1.6 | 0.00 | 0.00 | 0.00 | 52 | 1022.7 |
| 20260502052623 | 11 | 181 | 0.0 | 0.0 | 0.00 | 0.00 | 0.00 | 53 | 1022.7 |
| 20260502051655 | 10 | 152 | 4.8 | 4.8 | 0.00 | 0.00 | 0.00 | 54 | 1022.7 |
| 20260502051123 | 11 | 168 | 3.2 | 3.2 | 0.00 | 0.00 | 0.00 | 53 | 1022.4 |
| 20260502050624 | 11 | 181 | 1.6 | 3.2 | 0.00 | 0.00 | 0.00 | 53 | 1022.4 |
| 20260502050124 | 11 | 205 | 0.0 | 1.6 | 0.00 | 0.00 | 0.00 | 53 | 1022.7 |
| 20260502045625 | 10 | 206 | 1.6 | 1.6 | 0.00 | 0.00 | 0.00 | 55 | 1022.7 |
| 20260502045123 | 11 | 208 | 0.0 | 0.0 | 0.00 | 0.00 | 0.00 | 54 | 1022.7 |
| 20260502044624 | 10 | 197 | 0.0 | 0.0 | 0.00 | 0.00 | 0.00 | 55 | 1022.4 |
| 20260502044124 | 10 | 204 | 0.0 | 1.6 | 0.00 | 0.00 | 0.00 | 56 | 1022.4 |
| 20260502043623 | 10 | 200 | 1.6 | 1.6 | 0.00 | 0.00 | 0.00 | 56 | 1022.4 |
| 20260502043126 | 10 | 195 | 0.0 | 0.0 | 0.00 | 0.00 | 0.00 | 57 | 1022.4 |
| 20260502042623 | 10 | 200 | 0.0 | 1.6 | 0.00 | 0.00 | 0.00 | 57 | 1022.4 |
| 20260502042123 | 10 | 213 | 0.0 | 0.0 | 0.00 | 0.00 | 0.00 | 57 | 1022.4 |
| 20260502041623 | 9 | 209 | 0.0 | 0.0 | 0.00 | 0.00 | 0.00 | 57 | 1022.4 |
| 20260502041123 | 9 | 202 | 0.0 | 1.6 | 0.00 | 0.00 | 0.00 | 58 | 1022.4 |
| 20260502040623 | 9 | 210 | 0.0 | 0.0 | 0.00 | 0.00 | 0.00 | 58 | 1022.7 |
| 20260502040123 | 8 | 201 | 0.0 | 0.0 | 0.00 | 0.00 | 0.00 | 59 | 1022.4 |
| 20260502035624 | 8 | 210 | 0.0 | 0.0 | 0.00 | 0.00 | 0.00 | 59 | 1022.4 |
| 20260502035123 | 8 | 211 | 1.6 | 1.6 | 0.00 | 0.00 | 0.00 | 60 | 1022.7 |
| 20260502034623 | 8 | 205 | 0.0 | 0.0 | 0.00 | 0.00 | 0.00 | 61 | 1022.7 |
| 20260502034123 | 8 | 211 | 0.0 | 0.0 | 0.00 | 0.00 | 0.00 | 62 | 1022.4 |
| 20260502033623 | 7 | 213 | 0.0 | 0.0 | 0.00 | 0.00 | 0.00 | 64 | 1022.7 |
| 20260502033123 | 7 | 214 | 0.0 | 0.0 | 0.00 | 0.00 | 0.00 | 64 | 1022.7 |
| 20260502032623 | 7 | 214 | 0.0 | 0.0 | 0.00 | 0.00 | 0.00 | 63 | 1022.7 |
| 20260502032123 | 8 | 214 | 0.0 | 0.0 | 0.00 | 0.00 | 0.00 | 63 | 1023.0 |
| 20260502031623 | 8 | 213 | 0.0 | 0.0 | 0.00 | 0.00 | 0.00 | 62 | 1022.7 |
| 20260502031123 | 8 | 207 | 0.0 | 0.0 | 0.00 | 0.00 | 0.00 | 61 | 1022.7 |
| 20260502030623 | 8 | 210 | 0.0 | 0.0 | 0.00 | 0.00 | 0.00 | 62 | 1023.0 |
| 20260502030123 | 8 | 217 | 0.0 | 0.0 | 0.00 | 0.00 | 0.00 | 61 | 1023.0 |
| 20260502025623 | 8 | 214 | 0.0 | 1.6 | 0.00 | 0.00 | 0.00 | 61 | 1022.7 |
| 20260502025124 | 8 | 159 | 1.6 | 1.6 | 0.00 | 0.00 | 0.00 | 61 | 1023.0 |
| 20260502024623 | 8 | 152 | 3.2 | 3.2 | 0.00 | 0.00 | 0.00 | 61 | 1023.0 |
| 20260502024123 | 8 | 181 | 1.6 | 3.2 | 0.00 | 0.00 | 0.00 | 60 | 1022.7 |
| 20260502023623 | 8 | 191 | 0.0 | 1.6 | 0.00 | 0.00 | 0.00 | 60 | 1022.7 |
| 20260502023123 | 8 | 199 | 1.6 | 1.6 | 0.00 | 0.00 | 0.00 | 60 | 1023.0 |
| 20260502022623 | 8 | 197 | 1.6 | 1.6 | 0.00 | 0.00 | 0.00 | 61 | 1022.7 |
| 20260502022124 | 8 | 202 | 0.0 | 0.0 | 0.00 | 0.00 | 0.00 | 61 | 1023.0 |
| 20260502021624 | 8 | 205 | 0.0 | 0.0 | 0.00 | 0.00 | 0.00 | 60 | 1023.0 |
| 20260502021123 | 8 | 183 | 0.0 | 0.0 | 0.00 | 0.00 | 0.00 | 61 | 1023.0 |
| 20260502020624 | 8 | 221 | 0.0 | 0.0 | 0.00 | 0.00 | 0.00 | 60 | 1022.7 |
| 20260502020123 | 8 | 201 | 1.6 | 1.6 | 0.00 | 0.00 | 0.00 | 60 | 1023.0 |
| 20260502015623 | 8 | 179 | 0.0 | 1.6 | 0.00 | 0.00 | 0.00 | 60 | 1023.0 |
| 20260502015123 | 8 | 183 | 4.8 | 4.8 | 0.00 | 0.00 | 0.00 | 60 | 1023.0 |
| 20260502014623 | 9 | 164 | 4.8 | 8.0 | 0.00 | 0.00 | 0.00 | 58 | 1023.0 |
| 20260502014123 | 9 | 211 | 1.6 | 1.6 | 0.00 | 0.00 | 0.00 | 59 | 1023.0 |
| 20260502013623 | 9 | 193 | 1.6 | 1.6 | 0.00 | 0.00 | 0.00 | 59 | 1023.0 |
| 20260502013123 | 9 | 207 | 0.0 | 0.0 | 0.00 | 0.00 | 0.00 | 60 | 1023.0 |
| 20260502012623 | 9 | 196 | 1.6 | 1.6 | 0.00 | 0.00 | 0.00 | 59 | 1023.0 |
| 20260502012123 | 10 | 199 | 1.6 | 1.6 | 0.00 | 0.00 | 0.00 | 58 | 1023.0 |
| 20260502011625 | 10 | 175 | 1.6 | 1.6 | 0.00 | 0.00 | 0.00 | 57 | 1023.0 |
| 20260502011123 | 10 | 220 | 1.6 | 1.6 | 0.00 | 0.00 | 0.00 | 56 | 1023.0 |
| 20260502010624 | 10 | 203 | 1.6 | 1.6 | 0.00 | 0.00 | 0.00 | 56 | 1023.0 |
| 20260502010123 | 10 | 199 | 1.6 | 1.6 | 0.00 | 0.00 | 0.00 | 56 | 1023.0 |
| 20260502005623 | 10 | 216 | 1.6 | 1.6 | 0.00 | 0.00 | 0.00 | 54 | 1023.0 |
| 20260502005127 | 11 | 216 | 0.0 | 0.0 | 0.00 | 0.00 | 0.00 | 52 | 1023.0 |
| 20260502004624 | 11 | 209 | 0.0 | 1.6 | 0.00 | 0.00 | 0.00 | 50 | 1023.0 |
| 20260502004128 | 10 | 216 | 0.0 | 0.0 | 0.00 | 0.00 | 0.00 | 53 | 1023.0 |
| 20260502003623 | 10 | 216 | 0.0 | 0.0 | 0.00 | 0.00 | 0.00 | 54 | 1023.0 |
| 20260502003124 | 10 | 167 | 3.2 | 3.2 | 0.00 | 0.00 | 0.00 | 53 | 1023.4 |
| 20260502002623 | 10 | 178 | 3.2 | 3.2 | 0.00 | 0.00 | 0.00 | 54 | 1023.4 |
| 20260502002123 | 10 | 216 | 1.6 | 1.6 | 0.00 | 0.00 | 0.00 | 56 | 1023.4 |
| 20260502001624 | 9 | 215 | 0.0 | 0.0 | 0.00 | 0.00 | 0.00 | 58 | 1023.7 |
| 20260502001123 | 10 | 213 | 0.0 | 0.0 | 0.00 | 0.00 | 0.00 | 57 | 1023.4 |
| 20260502000623 | 10 | 194 | 1.6 | 1.6 | 0.00 | 0.00 | 0.00 | 57 | 1023.4 |
| 20260502000124 | 10 | 217 | 0.0 | 0.0 | 0.00 | 0.00 | 0.00 | 56 | 1023.4 |
| 20260501235623 | 10 | 219 | 0.0 | 0.0 | 0.00 | 0.00 | 0.00 | 54 | 1023.4 |
| 20260501235123 | 10 | 188 | 0.0 | 0.0 | 0.00 | 0.00 | 0.00 | 53 | 1023.7 |
| 20260501234627 | 11 | 232 | 0.0 | 0.0 | 0.00 | 0.00 | 0.00 | 52 | 1023.7 |
| 20260501234124 | 11 | 222 | 0.0 | 0.0 | 0.00 | 0.00 | 0.00 | 51 | 1023.7 |
| 20260501233624 | 11 | 206 | 0.0 | 0.0 | 0.00 | 0.00 | 0.00 | 50 | 1023.7 |
| 20260501233123 | 11 | 219 | 0.0 | 0.0 | 0.00 | 0.00 | 0.00 | 48 | 1023.4 |
| 20260501232623 | 12 | 216 | 0.0 | 0.0 | 0.00 | 0.00 | 0.00 | 48 | 1023.7 |
| 20260501232124 | 12 | 216 | 0.0 | 0.0 | 0.00 | 0.00 | 0.00 | 46 | 1023.7 |
| 20260501231623 | 12 | 223 | 0.0 | 0.0 | 0.00 | 0.00 | 0.00 | 46 | 1023.7 |
| 20260501231123 | 12 | 212 | 1.6 | 1.6 | 0.00 | 0.00 | 0.00 | 45 | 1024.0 |
| 20260501230623 | 13 | 211 | 1.6 | 1.6 | 0.00 | 0.00 | 0.00 | 42 | 1024.0 |
| 20260501230124 | 13 | 215 | 1.6 | 1.6 | 0.00 | 0.00 | 0.00 | 41 | 1023.4 |
| 20260501225623 | 12 | 172 | 0.0 | 1.6 | 0.00 | 0.00 | 0.00 | 41 | 1023.7 |
| 20260501225123 | 12 | 218 | 0.0 | 0.0 | 0.00 | 0.00 | 0.00 | 44 | 1024.0 |
| 20260501224623 | 12 | 218 | 0.0 | 0.0 | 0.00 | 0.00 | 0.00 | 45 | 1024.0 |
| 20260501224123 | 12 | 218 | 0.0 | 0.0 | 0.00 | 0.00 | 0.00 | 44 | 1023.7 |
| 20260501223624 | 12 | 188 | 1.6 | 1.6 | 0.00 | 0.00 | 0.00 | 45 | 1024.0 |
| 20260501223123 | 12 | 219 | 0.0 | 0.0 | 0.00 | 0.00 | 0.00 | 45 | 1024.0 |
| 20260501222623 | 12 | 216 | 0.0 | 0.0 | 0.00 | 0.00 | 0.00 | 46 | 1024.0 |
| 20260501222125 | 12 | 197 | 1.6 | 1.6 | 0.00 | 0.00 | 0.00 | 43 | 1024.0 |
| 20260501221623 | 12 | 188 | 1.6 | 1.6 | 0.00 | 0.00 | 0.00 | 42 | 1024.0 |
| 20260501221123 | 12 | 208 | 0.0 | 0.0 | 0.00 | 0.00 | 0.00 | 43 | 1024.0 |
| 20260501220625 | 12 | 217 | 0.0 | 0.0 | 0.00 | 0.00 | 0.00 | 43 | 1024.4 |
| 20260501220124 | 12 | 216 | 0.0 | 0.0 | 0.00 | 0.00 | 0.00 | 44 | 1024.0 |
| 20260501215623 | 12 | 212 | 0.0 | 0.0 | 0.00 | 0.00 | 0.00 | 43 | 1024.0 |
| 20260501215124 | 12 | 216 | 0.0 | 0.0 | 0.00 | 0.00 | 0.00 | 43 | 1024.0 |
| 20260501214623 | 12 | 221 | 0.0 | 1.6 | 0.00 | 0.00 | 0.00 | 42 | 1024.4 |
| 20260501214123 | 12 | 235 | 0.0 | 1.6 | 0.00 | 0.00 | 0.00 | 42 | 1024.4 |
| 20260501213623 | 12 | 228 | 0.0 | 0.0 | 0.00 | 0.00 | 0.00 | 42 | 1024.4 |
| 20260501213123 | 12 | 214 | 0.0 | 0.0 | 0.00 | 0.00 | 0.00 | 41 | 1024.4 |
| 20260501212624 | 13 | 218 | 0.0 | 0.0 | 0.00 | 0.00 | 0.00 | 41 | 1024.0 |
| 20260501212123 | 13 | 224 | 0.0 | 0.0 | 0.00 | 0.00 | 0.00 | 41 | 1024.0 |
| 20260501211623 | 13 | 255 | 0.0 | 0.0 | 0.00 | 0.00 | 0.00 | 40 | 1024.0 |
| 20260501211123 | 13 | 234 | 0.0 | 0.0 | 0.00 | 0.00 | 0.00 | 40 | 1024.0 |
| 20260501210624 | 13 | 230 | 0.0 | 0.0 | 0.00 | 0.00 | 0.00 | 40 | 1024.0 |
| 20260501210124 | 13 | 241 | 0.0 | 0.0 | 0.00 | 0.00 | 0.00 | 39 | 1024.4 |
| 20260501205624 | 13 | 231 | 1.6 | 1.6 | 0.00 | 0.00 | 0.00 | 39 | 1024.4 |
| 20260501205123 | 13 | 226 | 0.0 | 0.0 | 0.00 | 0.00 | 0.00 | 39 | 1024.4 |
| 20260501204624 | 13 | 223 | 0.0 | 0.0 | 0.00 | 0.00 | 0.00 | 40 | 1024.0 |
| 20260501204125 | 13 | 219 | 0.0 | 0.0 | 0.00 | 0.00 | 0.00 | 38 | 1024.0 |
| 20260501203623 | 14 | 218 | 0.0 | 0.0 | 0.00 | 0.00 | 0.00 | 38 | 1024.4 |
| 20260501203124 | 15 | 228 | 0.0 | 0.0 | 0.00 | 0.00 | 0.00 | 37 | 1024.4 |
| 20260501202623 | 15 | 167 | 1.6 | 1.6 | 0.00 | 0.00 | 0.00 | 36 | 1024.4 |
| 20260501202124 | 15 | 191 | 1.6 | 1.6 | 0.00 | 0.00 | 0.00 | 36 | 1024.0 |
| 20260501201625 | 15 | 248 | 1.6 | 1.6 | 0.00 | 0.00 | 0.00 | 36 | 1024.0 |
| 20260501201123 | 15 | 143 | 1.6 | 1.6 | 0.00 | 0.00 | 0.00 | 35 | 1024.4 |
| 20260501200624 | 15 | 206 | 0.0 | 0.0 | 0.00 | 0.00 | 0.00 | 35 | 1024.4 |
| 20260501200125 | 15 | 210 | 0.0 | 0.0 | 0.00 | 0.00 | 0.00 | 35 | 1024.4 |
| 20260501195623 | 15 | 253 | 1.6 | 1.6 | 0.00 | 0.00 | 0.00 | 34 | 1024.4 |
| 20260501195124 | 15 | 255 | 1.6 | 1.6 | 0.00 | 0.00 | 0.00 | 33 | 1024.4 |
| 20260501194623 | 15 | 242 | 1.6 | 1.6 | 0.00 | 0.00 | 0.00 | 33 | 1024.4 |
| 20260501194123 | 16 | 227 | 1.6 | 1.6 | 0.00 | 0.00 | 0.00 | 32 | 1024.4 |
| 20260501193623 | 16 | 256 | 1.6 | 1.6 | 0.00 | 0.00 | 0.00 | 32 | 1024.4 |
| 20260501193123 | 16 | 257 | 1.6 | 3.2 | 0.00 | 0.00 | 0.00 | 31 | 1024.4 |
| 20260501192624 | 16 | 233 | 1.6 | 1.6 | 0.00 | 0.00 | 0.00 | 31 | 1024.4 |
| 20260501192124 | 16 | 226 | 0.0 | 0.0 | 0.00 | 0.00 | 0.00 | 31 | 1024.4 |
| 20260501191623 | 16 | 250 | 1.6 | 1.6 | 0.00 | 0.00 | 0.00 | 31 | 1024.4 |
| 20260501191124 | 16 | 212 | 0.0 | 1.6 | 0.00 | 0.00 | 0.00 | 31 | 1024.0 |
| 20260501190624 | 16 | 217 | 0.0 | 0.0 | 0.00 | 0.00 | 0.00 | 30 | 1024.4 |
| 20260501190123 | 17 | 220 | 1.6 | 1.6 | 0.00 | 0.00 | 0.00 | 30 | 1024.4 |
| 20260501185624 | 17 | 243 | 1.6 | 3.2 | 0.00 | 0.00 | 0.00 | 29 | 1024.4 |
| 20260501185124 | 17 | 4 | 4.8 | 4.8 | 0.00 | 0.00 | 0.00 | 29 | 1024.4 |
| 20260501184623 | 17 | 342 | 4.8 | 4.8 | 0.00 | 0.00 | 0.00 | 29 | 1024.4 |
| 20260501184124 | 17 | 34 | 3.2 | 4.8 | 0.00 | 0.00 | 0.00 | 29 | 1024.4 |
| 20260501183625 | 17 | 273 | 1.6 | 1.6 | 0.00 | 0.00 | 0.00 | 29 | 1024.0 |
| 20260501183124 | 18 | 192 | 1.6 | 3.2 | 0.00 | 0.00 | 0.00 | 29 | 1024.4 |
| 20260501182623 | 18 | 216 | 3.2 | 3.2 | 0.00 | 0.00 | 0.00 | 30 | 1024.0 |
| 20260501182123 | 18 | 227 | 3.2 | 4.8 | 0.00 | 0.00 | 0.00 | 30 | 1024.0 |